Location: Lafig�re
(44.4503°N, 4.0357°E)
Time: 02:07:29
(UTC+00:00)

Transit 4A - Pass Details

Date: 21 January 2021
Orbit: 866 x 979 km, 66.8° (Epoch: 24 February)

Event Time Altitude Azimuth Distance (km) Brightness Sun altitude
Rises 05:35:08 0° 318° (NW) 3,616 - -17.2°
Reaches altitude 10° 05:38:07 10° 306° (NW) 2,648 - -16.7°
Exits shadow 05:41:46 24° 272° (W) 1,824 8.8 -16.1°
Maximum altitude 05:43:00 25° 253° (WSW) 1,746 8.8 -15.9°
Drops below altitude 10° 05:47:46 10° 200° (SSW) 2,570 10.1 -15.0°
Sets 05:50:38 0° 187° (S) 3,488 11.0 -14.5°
